DW7901 Weather Reports


time (UTC)temp
C
wind
direction
speed
KPH
gust
KPH
rain 1hr
cm
rain 24hr
cm
rain mn
cm
humidity
%
barometer
mb
20260831132004 33 329 4.8 12.9 0.00 0.00 0.00 23 1015.9
20260831131004 36 164 12.9 19.3 0.00 0.00 0.00 20 1016.1
20260831130004 35 243 1.6 12.9 0.00 0.00 0.00 20 1016.2
20260831125004 35 219 4.8 16.1 0.00 0.00 0.00 20 1016.2
20260831124004 36 231 4.8 16.1 0.00 0.00 0.00 19 1016.3
20260831122004 35 211 4.8 12.9 0.00 0.00 0.00 20 1016.5
20260831121004 36 225 3.2 17.7 0.00 0.00 0.00 14 1016.8
20260831120007 36 208 11.3 14.5 0.00 0.00 0.00 19 1016.9
20260831115003 37 213 11.3 19.3 0.00 0.00 0.00 18 1016.9
20260831113003 33 223 3.2 9.7 0.00 0.00 0.00 24 1017.2
20260831111004 33 232 3.2 12.9 0.00 0.00 0.00 23 1017.1
20260831110004 33 235 3.2 9.7 0.00 0.00 0.00 24 1017.3
20260831105003 32 213 6.4 17.7 0.00 0.00 0.00 24 1017.5
20260831104004 32 202 3.2 17.7 0.00 0.00 0.00 24 1017.4
20260831102003 32 234 4.8 12.9 0.00 0.00 0.00 26 1017.2
20260831095003 32 203 1.6 14.5 0.00 0.00 0.00 26 1017.6
20260831094004 32 195 8.0 14.5 0.00 0.00 0.00 27 1017.8
20260831093004 31 215 3.2 11.3 0.00 0.00 0.00 29 1017.9
20260831091003 30 206 1.6 16.1 0.00 0.00 0.00 33 1017.9
20260831090004 29 197 4.8 14.5 0.00 0.00 0.00 34 1018.0
20260831084004 28 215 3.2 11.3 0.00 0.00 0.00 36 1017.8
20260831083003 27 203 4.8 12.9 0.00 0.00 0.00 39 1017.9
20260831082004 27 225 6.4 12.9 0.00 0.00 0.00 39 1018.1
20260831081004 26 267 6.4 9.7 0.00 0.00 0.00 41 1018.1
20260831080004 26 292 0.0 8.0 0.00 0.00 0.00 42 1018.1
20260831075004 25 202 3.2 12.9 0.00 0.00 0.00 44 1018.0
20260831074004 25 246 1.6 14.5 0.00 0.00 0.00 45 1018.4
20260831073004 25 251 3.2 12.9 0.00 0.00 0.00 47 1018.3
20260831072003 24 209 6.4 12.9 0.00 0.00 0.00 47 1018.4
20260831071004 23 214 4.8 8.0 0.00 0.00 0.00 51 1018.2
20260831070005 23 200 1.6 8.0 0.00 0.00 0.00 52 1018.2
20260831065005 23 209 0.0 6.4 0.00 0.00 0.00 52 1018.3
20260830210004 18 181 1.6 3.2 0.00 0.03 0.03 62 1018.7
20260830205003 18 154 3.2 4.8 0.00 0.03 0.03 61 1018.8
20260830204004 18 139 3.2 6.4 0.00 0.03 0.03 61 1018.6
20260830203004 18 140 3.2 6.4 0.00 0.03 0.03 62 1018.8
20260830202004 18 138 3.2 6.4 0.00 0.03 0.03 61 1018.8
20260830201003 18 136 3.2 6.4 0.00 0.03 0.03 61 1018.8
20260830200004 18 160 3.2 4.8 0.00 0.03 0.03 59 1019.0
20260830195004 18 141 3.2 4.8 0.00 0.03 0.03 57 1018.9
20260830194003 19 135 3.2 6.4 0.00 0.03 0.03 56 1018.8
20260830193003 19 188 3.2 3.2 0.00 0.03 0.03 56 1018.7
20260830192004 19 135 1.6 4.8 0.00 0.03 0.03 55 1018.8
20260830190004 20 135 3.2 6.4 0.00 0.03 0.03 52 1018.7
20260830185003 20 141 3.2 4.8 0.00 0.03 0.03 52 1018.5
20260830184004 20 135 3.2 3.2 0.00 0.03 0.03 52 1018.6
20260830183004 20 135 0.0 3.2 0.00 0.03 0.03 51 1018.5
20260830181004 21 0 0.0 0.0 0.00 0.03 0.03 49 1018.6
20260830175003 22 154 0.0 3.2 0.00 0.03 0.03 43 1018.2
20260830174003 23 0 0.0 0.0 0.00 0.03 0.03 42 1018.1
20260830173003 24 0 0.0 0.0 0.00 0.03 0.03 39 1018.0
20260830172005 25 0 0.0 0.0 0.00 0.03 0.03 34 1018.0
20260830171003 27 0 0.0 0.0 0.00 0.03 0.03 29 1017.9
20260830170004 28 0 0.0 0.0 0.00 0.03 0.03 25 1017.9
20260830165004 31 225 0.0 3.2 0.00 0.03 0.03 20 1017.8
20260830164004 33 230 0.0 4.8 0.00 0.03 0.03 13 1017.9
20260830163004 33 213 0.0 8.0 0.00 0.03 0.03 14 1017.9
20260830162003 33 231 3.2 9.7 0.00 0.03 0.03 12 1017.7
20260830161004 34 270 0.0 12.9 0.00 0.03 0.03 11 1018.0
20260830155003 36 205 3.2 9.7 0.00 0.03 0.03 10 1018.0
20260830154004 35 243 0.0 12.9 0.00 0.03 0.03 11 1018.1
20260830153004 34 182 6.4 12.9 0.00 0.03 0.03 11 1017.9
20260830152004 35 205 6.4 12.9 0.00 0.03 0.03 10 1018.2
20260830151004 35 186 4.8 12.9 0.00 0.03 0.03 10 1018.1
20260830145004 35 188 4.8 17.7 0.00 0.03 0.03 10 1018.2
20260830144004 34 196 4.8 19.3 0.00 0.03 0.03 11 1018.3
20260830143003 33 201 6.4 17.7 0.00 0.03 0.03 12 1018.1
20260830142005 33 248 6.4 17.7 0.00 0.03 0.03 12 1018.2
20260830141003 32 191 6.4 17.7 0.00 0.03 0.03 18 1018.3
20260830140004 33 201 12.9 19.3 0.00 0.03 0.03 12 1018.5
20260830135004 32 235 3.2 12.9 0.00 0.03 0.03 19 1018.5
20260830134004 32 221 6.4 22.5 0.00 0.03 0.03 18 1018.5
20260830133003 32 226 6.4 20.9 0.00 0.03 0.03 18 1018.5